Probability
0 0 0 0 0 0 0 0 0 0 0 0 0 0 0 0 0 0 0 0 0 0 0 0 0 0 0 0 0 0 0 0 0 0 0 0 0 0 0 0 0 0 0
0 0 0 0 0 0 0 0 0 0 0 0 0 0 0 0 0 0 0 0 0 0 0 0 0 0 0 0 0 0 0 0 0 0 0 0 0 0 0 0 0 0 0
0 0 0 0 0 0 0 0 0 0 0 0 0 0 0 0 0 0 0 0 0 0 0 0 0 0 0 0 0 0 0 0 0 0 0 0 0 0 0 0 0 0 0
0 0 0 0 0 0 0 0 0 0 0 0 0 0 0 0 0 0 0 0 0 0 0 0 0 0 0 0 0 0 0 0 0 0 0 0 0 0 0 0 0 0 0
0 0 0 0 0 0 0 0 0 0 0 0 0 0 0 0 0 0 0 0 0 0 0 0 0 0 0 0 0 0 0 0 0 0 0 0 0 0 0 0 0 0 0
0 0 0 0 0 0 0 0 0 0 0 0 0 0 0 0 0 0 0 0 0 0 0 0 0 0 0 0 0 0 0 0 0 0 0 0 0 0 0 0 0 0 0
0 0 0 0 0 0 0 0 0 0 0 0 0 0 0 0 0 0 0 0 0 0 0 0 0 0 0 0 0 0 0 0 0 0 0 0 0 0 0 0 0 0 0
0 0 0 0 0 0 0 0 0 0 0 0 0 0 0 0 0 0 0 0 0 0 0 0 0 0 0 0 0 0 0 0 0 0 0 0 0 0 0 0 0 0 0
0 0 0 0 0 0 0 0 0 0 0 0 0 0 0 0 0 0 0 0 0 0 0 0 0 0 0 0 0 0 0 0 0 0 0 0 0 0 0 0 0 0 0
0 0 0 0 0 0 0 0 0 0 0 0 0 0 0 0 0 0 0 0 0 0 0 0 0 0 0 0 0 0 0 0 0 0 0 0 0 0 0 0 0 0 0
0 0 0 0 0 0 0 0 0 0 0 0 0 0 0 0 0 0 0 0 0 0 0 0 0 0 0 0 0 0 0 0 0 0 0 0 0 0 0 0 0 0 0
0 0 0 0 0 0 0 0 0 0 0 0 0 0 0 0 0 0 0 0 0 0 0 0 0 0 0 0 0 0 0 0 0 0 0 0 0 0 0 0 0 0 0
0 0 0 0 0 0 0 0 0 0 0 0 0 0 0 0 0 0 0 0 0 0 0 0 0 0 0 0 0 0 0 0 0 0 0 0 0 0 0 0 0 0 0
0 0 0 0 0 0 0 0 0 0 0 0 0 0 0 0 0 0 0 0 0 0 0 0 0 0 0 0 0 0 0 0 0 0 0 0 0 0 0 0 0 0 0
0 0 0 0 0 0 0 0 0 0 0 0 0 0 0 0 0 0 0 0 0 0 0 0 0 0 0 0 0 0 0 0 0 0 0 0 0 0 0 0 0 0 0
0 0 0 0 0 0 0 0 0 0 0 0 0 0 0 0 0 0 0 0 0 0 0 0 0 0 0 0 0 0 0 0 0 0 0 0 0 0 0 0 0 0 0
0 0 0 0 0 0 0 0 0 0 0 0 0 0 0 0 0 0 0 0 0 0 0 0 0 0 0 0 0 0 0 0 0 0 0 0 0 0 0 0 0 0 0
0 0 0 0 0 0 0 0 0 0 0 0 0 0 0 0 0 0 0 0 0 0 0 0 0 0 0 0 0 0 0 0 0 0 0 0 0 0 0 0 0 0 0
0 0 0 0 0 0 0 0 0 0 0 0 0 0 0 0 0 0 0 0 0 0 0 0 0 0 0 0 0 0 0 0 0 0 0 0 0 0 0 0 0 0 0
0 0 0 0 0 0 0 0 0 0 0 0 0 0 0 0 0 0 0 0 0 0 0 0 0 0 0 0 0 0 0 0 0 0 0 0 0 0 0 0 0 0 0
0 0 0 0 0 0 0 0 0 0 0 0 0 0 0 0 0 0 0 0 0 0 0 0 0 0 0 0 0 0 0 0 0 0 0 0 0 0 0 0 0 0 0
0 0 0 0 0 0 0 0 0 0 0 0 0 0 0 0 0 0 0 0 0 0 0 0 0 0 0 0 0 0 0 0 0 0 0 0 0 0 0 0 0 0 0
0 0 0 0 0 0 0 0 0 0 0 0 0 0 0 0 0 0 0 0 0 0 0 0 0 0 0 0 0 0 0 0 0 0 0 0 0 0 0 0 0 0 0
0 0 0 0 0 0 0 0 0 0 0 0 0 0 0 0 0 0 0 0 0 0 0 0 0 0 0 0 0 0 0 0 0 0 0 0 0 0 0 0 0 0 0
0 0 0 0 0 0 0 0 0 0 0 0 0 0 0 0 0 0 0 0 0 0 0 0 0 0 0 0 0 0 0 0 0 0 0 0 0 0 0 0 0 0 0
0 0 0 0 0 0 0 0 0 0 0 0 0 0 0 0 0 0 0 0 0 0 0 0 0 0 0 0 0 0 0 0 0 0 0 0 0 0 0 0 0 0 0
Height
5858 5859 5860 5862 5863 5864 5865 5866 5867 5868 5869 5870 5871 5872 5872 5872 5872 5872 5871 5871 5870 5869 5868 5867 5866 5864 5864 5863 5862 5862 5861 5861 5861 5861 5862 5862 5862 5863 5863 5863 5864 5864 5865
5856 5858 5859 5860 5861 5862 5863 5865 5866 5867 5868 5869 5870 5871 5871 5871 5871 5871 5871 5870 5870 5869 5868 5867 5866 5865 5864 5863 5862 5862 5862 5861 5861 5862 5862 5862 5863 5863 5863 5863 5864 5864 5864
5855 5856 5857 5858 5860 5861 5862 5863 5865 5866 5867 5868 5869 5870 5870 5870 5871 5871 5870 5870 5869 5869 5868 5867 5866 5865 5864 5863 5863 5862 5862 5862 5862 5862 5862 5862 5862 5862 5863 5863 5863 5863 5864
5853 5854 5856 5857 5859 5860 5861 5862 5864 5865 5866 5867 5868 5869 5870 5870 5870 5870 5870 5870 5869 5869 5868 5867 5866 5865 5864 5863 5863 5862 5862 5862 5862 5862 5862 5862 5862 5862 5862 5863 5863 5863 5863
5852 5853 5854 5856 5857 5858 5860 5861 5863 5864 5865 5866 5867 5868 5868 5869 5869 5869 5869 5869 5869 5868 5868 5867 5866 5865 5864 5864 5863 5862 5862 5862 5862 5861 5861 5861 5861 5861 5861 5862 5862 5862 5862
5851 5852 5853 5855 5856 5858 5859 5860 5862 5863 5864 5865 5866 5867 5867 5868 5868 5868 5868 5868 5868 5868 5867 5867 5866 5865 5864 5864 5863 5862 5862 5862 5861 5861 5861 5860 5860 5860 5860 5860 5860 5860 5860
5849 5851 5852 5854 5855 5856 5858 5859 5860 5862 5863 5864 5865 5866 5866 5867 5867 5867 5868 5868 5867 5867 5867 5866 5866 5865 5864 5863 5863 5862 5862 5861 5861 5860 5860 5860 5860 5859 5859 5859 5859 5859 5859
5848 5849 5850 5852 5853 5855 5856 5857 5859 5860 5862 5863 5864 5864 5865 5865 5866 5866 5866 5867 5867 5866 5866 5865 5865 5864 5864 5863 5862 5862 5861 5861 5860 5859 5859 5859 5858 5858 5858 5857 5857 5857 5857
5846 5848 5849 5850 5852 5853 5854 5855 5857 5858 5860 5861 5862 5863 5863 5864 5864 5865 5865 5865 5865 5865 5865 5864 5864 5863 5863 5862 5861 5861 5860 5860 5859 5858 5858 5857 5857 5856 5856 5855 5855 5855 5854
5845 5846 5847 5848 5850 5851 5852 5854 5855 5856 5858 5859 5860 5861 5862 5862 5863 5863 5863 5864 5864 5863 5863 5863 5862 5862 5861 5861 5860 5859 5859 5858 5857 5857 5856 5855 5855 5854 5854 5853 5853 5852 5852
5843 5844 5845 5846 5848 5849 5850 5851 5853 5854 5856 5857 5858 5858 5859 5860 5860 5861 5861 5862 5862 5861 5861 5861 5861 5860 5860 5859 5858 5858 5857 5856 5855 5855 5854 5853 5852 5852 5851 5850 5850 5849 5849
5841 5842 5843 5844 5846 5847 5848 5849 5851 5852 5853 5854 5855 5856 5857 5858 5858 5858 5859 5859 5859 5859 5859 5859 5859 5858 5858 5857 5856 5856 5855 5854 5853 5852 5851 5850 5849 5848 5848 5847 5846 5845 5845
5839 5840 5842 5843 5844 5845 5846 5848 5849 5850 5851 5852 5853 5853 5854 5855 5855 5856 5856 5857 5857 5857 5857 5857 5856 5856 5855 5855 5854 5853 5852 5851 5850 5849 5848 5847 5846 5845 5844 5843 5842 5841 5840
5838 5839 5840 5841 5842 5843 5844 5845 5846 5847 5848 5849 5850 5851 5851 5852 5853 5853 5853 5854 5854 5854 5854 5854 5853 5853 5852 5852 5851 5850 5849 5848 5847 5846 5844 5843 5842 5841 5839 5838 5837 5836 5835
5836 5837 5838 5839 5840 5841 5842 5843 5844 5845 5846 5846 5847 5848 5848 5849 5849 5850 5850 5850 5851 5851 5850 5850 5850 5849 5849 5848 5847 5846 5845 5844 5843 5842 5840 5839 5837 5836 5834 5833 5832 5831 5830
5835 5835 5836 5837 5838 5839 5839 5840 5841 5842 5843 5844 5844 5845 5845 5846 5846 5846 5847 5847 5847 5847 5847 5847 5846 5846 5845 5844 5843 5842 5841 5840 5838 5837 5835 5833 5832 5830 5829 5827 5826 5825 5824
5832 5833 5833 5834 5835 5836 5837 5837 5838 5839 5840 5841 5841 5842 5842 5842 5843 5843 5843 5843 5843 5843 5843 5842 5842 5841 5841 5840 5838 5837 5836 5835 5833 5831 5830 5828 5826 5824 5823 5821 5820 5819 5817
5830 5830 5831 5832 5832 5833 5834 5835 5835 5836 5837 5837 5838 5838 5839 5839 5839 5839 5839 5839 5839 5839 5838 5838 5837 5837 5836 5835 5833 5832 5831 5829 5828 5826 5824 5822 5820 5818 5817 5815 5814 5812 5811
5826 5827 5828 5828 5829 5830 5831 5832 5832 5833 5834 5834 5834 5835 5835 5835 5835 5835 5835 5835 5835 5834 5834 5833 5833 5832 5831 5830 5828 5827 5825 5824 5822 5820 5818 5816 5814 5813 5811 5809 5807 5805 5804
5823 5824 5825 5825 5826 5827 5828 5829 5829 5830 5830 5830 5831 5831 5831 5831 5831 5831 5831 5831 5830 5830 5829 5829 5828 5827 5826 5824 5823 5821 5820 5819 5817 5815 5813 5810 5808 5806 5804 5802 5800 5798 5796
5820 5821 5821 5822 5823 5824 5824 5825 5826 5826 5827 5827 5827 5827 5827 5827 5827 5827 5827 5826 5826 5825 5825 5824 5823 5821 5820 5819 5817 5816 5814 5812 5810 5808 5806 5804 5802 5799 5797 5795 5793 5791 5788
5817 5818 5818 5819 5819 5820 5821 5822 5822 5823 5823 5823 5823 5823 5823 5823 5823 5822 5822 5822 5821 5821 5820 5819 5817 5816 5815 5813 5811 5810 5808 5806 5804 5802 5800 5797 5795 5792 5790 5787 5785 5782 5780
5813 5814 5814 5815 5816 5817 5817 5818 5818 5819 5819 5819 5819 5819 5818 5818 5818 5818 5817 5817 5816 5815 5814 5813 5812 5810 5809 5807 5805 5803 5801 5799 5797 5795 5793 5790 5787 5785 5782 5779 5776 5773 5771
5810 5810 5811 5811 5812 5813 5813 5814 5814 5814 5814 5814 5814 5814 5814 5813 5813 5813 5812 5812 5811 5810 5809 5807 5806 5804 5802 5800 5798 5796 5795 5792 5790 5788 5785 5782 5779 5776 5773 5771 5768 5764 5761
5806 5806 5807 5808 5808 5808 5809 5809 5809 5809 5810 5810 5809 5809 5809 5809 5808 5808 5807 5806 5805 5804 5803 5801 5800 5798 5796 5794 5792 5789 5787 5785 5782 5780 5777 5774 5771 5768 5765 5762 5758 5755 5751
5801 5802 5802 5803 5803 5804 5804 5804 5804 5804 5804 5804 5804 5804 5804 5803 5803 5802 5801 5800 5799 5798 5796 5795 5793 5791 5789 5787 5784 5782 5780 5777 5774 5772 5769 5766 5763 5759 5756 5753 5749 5745 5742
Wind_Speed
10 9 10 10 10 10 9 9 9 8 7 6 6 5 3 3 2 2 2 2 3 3 4 5 5 5 4 4 3 2 2 1 1 1 1 1 1 2 1 1 1 1 2
11 10 10 10 10 10 9 9 8 8 7 7 6 5 4 4 3 2 2 2 3 3 4 4 5 5 4 3 2 2 2 1 1 0 0 1 1 2 2 1 2 2 2
11 10 11 10 9 9 9 9 9 8 7 7 6 6 5 4 3 2 1 1 2 3 4 4 5 5 4 3 2 2 2 1 1 0 1 1 1 2 2 2 2 3 3
10 10 10 10 9 8 8 8 8 8 7 7 6 5 5 4 4 3 2 1 2 3 3 4 4 4 4 3 3 2 2 2 1 1 1 1 2 2 3 3 3 4 4
10 10 10 10 10 9 9 9 9 8 7 7 6 6 5 5 4 3 2 2 2 3 3 4 4 4 4 4 3 2 2 2 2 1 1 1 2 2 3 4 4 4 5
12 12 11 10 10 10 10 9 9 8 8 7 7 7 6 5 5 4 3 3 3 3 4 4 4 4 4 4 3 3 3 2 2 2 2 2 3 3 4 5 5 6 6
12 13 13 12 12 12 11 10 9 9 9 8 8 7 6 6 6 5 5 4 3 4 4 4 4 4 4 4 3 3 3 3 3 3 3 4 4 4 5 6 6 7 7
11 11 12 12 11 12 12 11 11 11 10 9 8 8 8 7 7 6 5 5 4 5 5 5 5 5 5 4 4 4 4 5 5 5 5 5 6 6 7 7 7 8 9
11 11 11 11 11 12 12 12 12 11 11 10 9 9 9 8 8 7 7 6 6 6 6 6 6 5 5 5 5 5 6 6 6 6 7 7 7 8 8 8 9 10 10
11 11 10 11 11 12 12 12 12 13 12 11 11 11 10 9 9 9 8 8 8 7 7 7 7 7 7 7 7 7 7 8 8 8 9 9 9 9 9 10 11 11 12
10 11 10 11 12 12 12 12 13 13 12 11 12 11 11 11 11 11 10 10 9 8 8 8 8 8 8 8 9 9 9 9 9 10 10 11 11 11 12 12 13 14 14
10 10 10 10 11 11 12 12 12 13 12 12 12 12 12 12 12 12 11 11 10 10 10 10 10 10 10 10 10 10 10 11 11 11 12 12 13 14 15 15 15 16 16
9 9 10 10 11 11 12 12 12 12 12 12 12 13 13 12 12 12 12 11 11 11 11 12 12 12 12 12 12 12 12 12 13 13 14 14 15 15 16 17 17 17 18
9 9 10 10 10 11 12 12 11 11 11 11 12 12 13 13 13 13 13 13 13 12 13 13 13 13 14 13 14 14 14 14 15 15 16 16 17 17 17 18 18 18 19
8 9 10 10 10 10 10 11 11 11 11 11 12 12 13 13 13 14 14 14 14 14 14 14 14 15 15 15 16 16 16 17 17 18 18 18 18 18 18 19 19 20 20
8 9 9 10 10 11 10 10 11 12 12 12 12 12 13 13 14 14 15 15 15 15 15 15 16 16 17 17 17 18 18 19 19 19 19 20 20 19 19 20 21 21 22
9 9 10 11 11 11 11 11 12 12 12 12 13 13 13 13 14 15 15 16 16 17 17 17 18 18 18 19 19 20 20 20 20 21 21 21 21 21 21 22 22 23 23
10 11 11 11 12 12 12 12 12 12 12 12 13 13 14 15 15 15 16 17 17 18 19 19 18 19 19 20 20 20 21 21 21 22 22 22 22 22 23 24 24 24 25
12 12 12 12 12 12 12 13 13 12 12 13 14 14 15 15 16 16 17 17 17 18 18 18 19 19 20 20 21 21 21 22 22 22 22 22 23 23 24 25 25 26 27
12 12 12 12 12 12 12 12 13 13 13 13 14 14 15 15 16 16 17 16 17 17 18 18 19 20 21 21 21 22 22 23 23 23 23 24 24 25 26 26 27 28 29
11 12 13 13 13 13 13 13 13 13 13 14 14 14 15 15 16 16 16 16 16 17 18 19 20 21 21 22 22 23 23 23 24 24 24 25 26 27 28 28 29 30 31
12 12 12 13 13 13 13 13 13 14 14 14 14 14 15 15 16 16 16 17 17 18 19 20 21 22 22 23 23 24 24 24 24 25 26 26 28 29 30 30 31 32 32
13 13 13 13 14 14 14 14 14 14 15 15 15 16 16 16 17 17 17 18 19 20 20 21 21 22 23 23 24 24 25 25 25 26 27 28 29 30 31 32 32 33 34
14 14 14 14 14 14 15 15 15 15 16 16 16 16 16 17 17 17 18 19 20 21 21 21 22 22 23 24 24 25 25 26 27 28 29 29 30 31 32 33 34 35 36
15 15 15 16 16 16 16 16 17 17 17 17 17 17 17 18 18 19 19 20 21 22 23 22 23 23 24 25 26 26 27 29 29 30 30 30 31 32 33 34 35 36 37
17 17 17 17 17 18 18 18 18 18 19 18 18 18 18 19 20 20 21 22 22 23 24 24 24 25 25 26 27 28 29 29 30 29 30 31 32 33 34 35 36 37 38
Wind_Direction
230 232 233 229 223 216 217 222 226 228 225 220 217 219 228 245 259 289 309 335 348 358 7 15 17 15 16 17 23 28 36 57 64 85 123 160 167 177 183 196 201 223 232
232 234 232 229 219 216 220 219 224 228 221 216 218 228 236 243 249 272 283 319 341 357 8 12 9 5 5 8 15 25 28 26 17 99 185 218 215 212 212 223 231 244 249
230 233 228 221 222 221 222 224 224 218 213 215 221 229 235 237 236 250 270 318 344 0 9 10 7 3 3 7 9 8 5 15 359 287 256 234 228 228 238 246 251 255 254
222 221 217 217 222 219 217 218 216 210 209 217 225 229 233 235 233 238 250 301 332 345 355 358 359 358 4 13 10 7 9 2 352 325 255 241 248 249 246 250 258 262 259
216 214 214 217 219 216 215 211 210 210 211 215 225 228 228 230 224 228 246 283 311 328 334 340 347 350 353 358 359 354 349 340 336 321 292 271 262 259 259 259 263 266 266
217 218 221 222 222 219 214 211 209 208 210 217 225 227 228 227 224 229 245 269 296 313 320 328 335 341 346 349 353 351 348 341 327 310 299 289 278 271 276 271 268 267 267
220 222 224 225 225 223 220 217 216 216 217 224 229 228 232 233 233 241 248 257 279 298 308 311 320 327 333 338 339 337 333 329 322 310 302 297 290 285 284 283 275 271 276
223 224 222 224 225 224 225 224 223 222 223 229 237 237 240 240 242 247 250 258 269 285 293 296 300 305 310 317 318 316 315 311 308 301 295 295 292 289 288 286 283 281 281
225 225 224 227 228 226 227 227 227 226 225 232 236 241 246 246 246 248 257 265 271 280 284 288 290 290 295 304 307 303 304 304 301 298 294 293 292 288 287 286 286 285 282
227 226 227 228 228 227 227 229 231 228 228 234 237 242 247 248 249 253 260 268 271 274 278 282 282 280 284 293 299 299 302 302 299 295 291 289 290 291 289 286 285 284 284
232 228 229 229 229 230 229 230 229 227 229 236 240 245 249 252 257 256 258 264 268 272 274 275 279 280 282 288 292 295 296 296 295 295 294 289 287 287 287 287 285 285 285
237 234 233 232 233 233 232 232 231 230 235 242 243 247 251 254 258 257 258 261 265 268 272 276 278 280 284 289 292 292 295 296 296 295 294 291 288 287 287 288 287 286 286
238 236 235 235 235 234 233 230 232 234 239 245 247 250 251 255 258 256 254 258 263 267 272 276 277 279 283 288 291 292 294 294 295 295 295 294 293 291 290 289 288 287 287
239 236 234 234 232 233 234 234 235 238 243 249 250 251 252 257 259 257 255 258 263 268 273 276 278 279 282 284 287 289 291 293 294 295 294 292 291 290 289 288 287 288 288
246 239 235 234 236 238 237 237 240 245 250 254 253 254 254 257 260 259 259 263 266 269 273 276 279 280 281 283 285 287 289 291 292 293 294 294 293 292 291 290 289 288 288
253 242 239 240 244 246 248 247 248 249 252 254 255 258 259 259 261 262 263 265 268 271 275 278 280 281 282 284 285 287 290 291 293 294 295 294 293 292 291 290 289 289 288
254 248 244 244 245 247 250 251 253 251 253 255 257 260 262 262 264 265 266 270 273 275 279 281 282 283 285 286 287 288 289 291 293 294 294 293 292 291 291 291 291 290 288
255 254 252 252 250 249 251 251 251 252 255 259 261 263 264 266 269 269 272 274 276 278 280 282 284 286 287 288 289 290 290 293 294 295 295 295 294 293 293 292 291 290 288
255 252 251 250 251 251 252 251 250 254 259 262 263 266 267 270 272 273 274 277 279 280 282 284 286 287 288 289 289 289 290 294 295 296 296 295 294 294 294 293 292 291 290
257 254 252 251 253 252 254 251 253 257 261 264 266 268 268 270 272 275 276 279 281 282 285 286 288 289 289 290 291 292 292 294 294 295 295 295 294 294 294 294 293 292 292
258 257 254 252 254 254 254 254 256 259 264 268 270 270 270 271 273 275 279 282 283 284 287 287 288 290 291 293 293 293 293 294 294 294 295 295 295 296 295 294 294 294 292
258 259 257 255 257 257 255 255 257 260 265 269 272 273 274 275 275 277 280 282 283 284 286 288 289 290 291 293 293 293 293 293 294 295 296 297 298 297 296 296 295 295 294
258 258 257 256 257 256 256 258 260 264 269 270 273 274 275 276 277 279 281 283 284 286 287 288 289 291 292 293 293 293 293 293 294 295 295 296 298 298 297 297 296 295 294
257 258 259 259 259 258 259 262 266 269 272 273 274 274 275 277 279 281 283 285 287 288 290 290 290 292 293 293 294 294 294 295 295 295 297 298 298 298 297 297 296 296 296
256 257 259 260 260 262 263 266 269 271 271 272 274 275 276 277 278 280 282 286 288 288 289 290 291 292 293 295 295 295 295 296 296 296 297 297 298 298 298 298 298 298 298
257 258 261 262 262 264 265 268 269 271 272 273 274 275 276 278 279 280 283 286 288 289 289 290 291 292 294 295 296 296 296 297 297 297 297 297 298 298 299 299 299 300 299